M I D A S
Marine Information and Data Acquisition System
Tripno 2015 of the Zeeleeuw from 2010-11-17 08:29:53 to 2010-11-17 15:14:32
Back to CruiseResearch ActivitiesStationsMapUnderway DataData graphs

EquipmentUnitsComments
TimeDGPSUTC
LatitudeDGPSDM.mWGS84
LongitudeDGPSDM.mWGS84
SpeedMeteo Stationm/sRelative wind speed
DirectionMeteo StationdegRelative wind direction
TemperatureMeteo Stationdeg CelciusAir temperature
PressureMeteo StationPaAtmospheric pressure
HumidityMeteo Station%Relative humidity
Missing or incorrect values are displayed as -999
Metereological data collected by the RV Zeeleeuw from 2010-11-17 07:24:56 to 2010-11-17 15:26:02
                                                                                    Next 1000 lines
Time Latitude Longitude Speed Direction Temperature Pressure Humidity
2010-11-17 07:25:06 51°13.663 2°55.959 2.8 325 3.8 101290 45
2010-11-17 07:25:11 51°13.663 2°55.959 2.3 319 3.8 101290 41
2010-11-17 07:25:16 51°13.663 2°55.959 2.8 323 3.8 101290 41
2010-11-17 07:25:21 51°13.664 2°55.959 3.4 324 3.8 101290 43
2010-11-17 07:25:26 51°13.664 2°55.959 4.5 329 3.8 101290 43
2010-11-17 07:25:31 51°13.664 2°55.958 4.7 324 3.8 101290 45
2010-11-17 07:25:36 51°13.664 2°55.958 2.8 308 3.8 101290 45
2010-11-17 07:25:41 51°13.664 2°55.958 2.7 320 3.8 101290 41
2010-11-17 07:25:45 51°13.664 2°55.958 2.2 304 3.8 101290 41
2010-11-17 07:25:51 51°13.664 2°55.958 2.6 318 3.8 101290 43
2010-11-17 07:25:56 51°13.664 2°55.958 2.7 333 3.8 101290 43
2010-11-17 07:26:01 51°13.665 2°55.957 3.9 326 3.8 101290 42
2010-11-17 07:26:06 51°13.664 2°55.958 4 325 3.8 101290 42
2010-11-17 07:26:11 51°13.664 2°55.958 4.1 328 3.7 101280 40
2010-11-17 07:26:16 51°13.664 2°55.958 2.8 326 3.7 101280 40
2010-11-17 07:26:21 51°13.665 2°55.958 3.9 329 3.7 101280 44
2010-11-17 07:26:26 51°13.665 2°55.958 4.4 333 3.7 101280 44
2010-11-17 07:26:31 51°13.664 2°55.958 4.2 325 3.7 101280 44
2010-11-17 07:26:36 51°13.664 2°55.958 5.7 329 3.7 101280 44
2010-11-17 07:26:41 51°13.664 2°55.958 4.4 332 3.7 101280 42
2010-11-17 07:26:46 51°13.664 2°55.957 6.3 305 3.7 101280 42
2010-11-17 07:26:51 51°13.664 2°55.958 4.7 325 3.7 101280 44
2010-11-17 07:26:56 51°13.664 2°55.958 2.8 326 3.7 101280 44
2010-11-17 07:27:01 51°13.664 2°55.958 4.4 325 3.7 101280 42
2010-11-17 07:27:06 51°13.664 2°55.958 4.6 284 3.7 101280 42
2010-11-17 07:27:11 51°13.664 2°55.957 4.7 323 3.7 101280 44
2010-11-17 07:27:16 51°13.664 2°55.958 4.5 329 3.7 101280 44
2010-11-17 07:27:21 51°13.664 2°55.957 4.8 327 3.7 101280 41
2010-11-17 07:27:26 51°13.664 2°55.957 4.8 325 3.7 101280 41
2010-11-17 07:27:31 51°13.664 2°55.957 3.9 331 3.7 101280 43
2010-11-17 07:27:36 51°13.664 2°55.957 2.9 304 3.7 101280 43
2010-11-17 07:27:41 51°13.664 2°55.958 2.3 331 3.7 101280 44
2010-11-17 07:27:46 51°13.664 2°55.958 3.4 307 3.7 101280 44
2010-11-17 07:27:51 51°13.664 2°55.958 1.8 328 3.7 101280 44
2010-11-17 07:27:56 51°13.664 2°55.958 2 323 3.7 101280 44
2010-11-17 07:28:01 51°13.663 2°55.958 3.1 331 3.7 101280 44
2010-11-17 07:28:06 51°13.663 2°55.958 1.8 327 3.7 101280 44
2010-11-17 07:28:11 51°13.664 2°55.958 2.9 319 3.7 101280 44
2010-11-17 07:28:16 51°13.664 2°55.958 2.7 333 3.7 101280 44
2010-11-17 07:28:21 51°13.664 2°55.958 2 328 3.7 101280 44
2010-11-17 07:28:26 51°13.664 2°55.958 2 328 3.7 101280 44
2010-11-17 07:28:31 51°13.664 2°55.958 2 328 3.7 101280 44
2010-11-17 07:28:36 51°13.664 2°55.958 2 328 3.7 101280 44
2010-11-17 07:28:41 51°13.664 2°55.958 2 328 -999 -999 -999
2010-11-17 07:28:46 51°13.664 2°55.958 2 328 -999 -999 -999
2010-11-17 07:28:51 51°13.664 2°55.958 -999 -999 -999 -999 -999
2010-11-17 07:28:56 51°13.663 2°55.958 -999 322 -999 -999 -999
2010-11-17 07:29:01 51°13.663 2°55.958 1.1 14 -999 -999 -999
2010-11-17 07:29:06 51°13.664 2°55.957 0.3 327 -999 -999 -999
2010-11-17 07:29:11 51°13.663 2°55.958 0.2 330 -999 -999 -999
2010-11-17 07:29:16 51°13.663 2°55.958 0.7 322 -999 -999 -999
2010-11-17 07:29:20 51°13.663 2°55.958 3.5 320 3.8 -999 35
2010-11-17 07:29:25 51°13.664 2°55.958 2.4 328 3.8 -999 35
2010-11-17 07:29:30 51°13.664 2°55.958 2.5 323 3.7 -999 45
2010-11-17 07:29:35 51°13.664 2°55.958 0.2 322 3.7 -999 45
2010-11-17 07:29:40 51°13.664 2°55.958 0.2 334 3.7 101280 46
2010-11-17 07:29:44 51°13.664 2°55.958 2.2 317 3.7 101280 46
2010-11-17 07:29:49 51°13.664 2°55.958 1.4 329 3.7 101270 44
2010-11-17 07:29:54 51°13.664 2°55.958 1.2 331 3.7 101270 44
2010-11-17 07:30:00 51°13.664 2°55.958 0.3 332 3.7 101280 43
2010-11-17 07:30:04 51°13.664 2°55.958 0.1 326 3.7 101280 43
2010-11-17 07:30:09 51°13.664 2°55.958 0.9 333 3.7 101280 45
2010-11-17 07:30:14 51°13.664 2°55.958 0.8 303 3.7 101280 45
2010-11-17 07:30:18 51°13.664 2°55.958 0.3 323 3.7 101280 44
2010-11-17 07:30:24 51°13.663 2°55.958 2 325 3.7 101280 44
2010-11-17 07:30:28 51°13.663 2°55.958 1.8 327 3.7 101280 44
2010-11-17 07:30:33 51°13.664 2°55.958 0.1 321 3.7 101280 44
2010-11-17 07:30:38 51°13.664 2°55.958 1.8 330 3.7 101280 44
2010-11-17 07:30:43 51°13.664 2°55.958 0.7 326 3.7 101280 44
2010-11-17 07:30:48 51°13.664 2°55.958 0.4 325 3.7 101280 43
2010-11-17 07:30:52 51°13.664 2°55.958 1.7 329 3.7 101280 43
2010-11-17 07:30:57 51°13.664 2°55.958 2 331 3.7 101280 45
2010-11-17 07:31:02 51°13.664 2°55.958 2.9 330 3.7 101280 45
2010-11-17 07:31:07 51°13.665 2°55.959 3.2 321 3.7 101280 43
2010-11-17 07:31:12 51°13.666 2°55.959 5 329 3.7 101280 43
2010-11-17 07:31:16 51°13.667 2°55.959 4.9 325 3.7 101280 42
2010-11-17 07:31:22 51°13.666 2°55.959 4 324 3.7 101280 42
2010-11-17 07:31:27 51°13.666 2°55.959 4.3 328 3.7 101280 45
2010-11-17 07:31:32 51°13.666 2°55.959 4.2 332 3.7 101280 45
2010-11-17 07:31:37 51°13.665 2°55.958 4.7 333 3.7 101280 45
2010-11-17 07:31:42 51°13.665 2°55.959 2.1 342 3.7 101280 45
2010-11-17 07:31:47 51°13.665 2°55.959 2.7 330 3.7 101280 44
2010-11-17 07:31:52 51°13.664 2°55.959 1.8 331 3.7 101280 44
2010-11-17 07:31:57 51°13.665 2°55.959 1 328 3.7 101280 45
2010-11-17 07:32:02 51°13.664 2°55.959 0.9 323 3.7 101280 45
2010-11-17 07:32:07 51°13.664 2°55.959 0.6 324 3.7 101280 45
2010-11-17 07:32:12 51°13.665 2°55.959 1.5 323 3.7 101280 45
2010-11-17 07:32:16 51°13.665 2°55.958 0.9 328 3.7 101280 42
2010-11-17 07:32:22 51°13.664 2°55.959 1.1 326 3.7 101280 42
2010-11-17 07:32:27 51°13.664 2°55.959 2.7 325 3.7 101280 42
2010-11-17 07:32:32 51°13.665 2°55.959 1.7 321 3.7 101280 42
2010-11-17 07:32:36 51°13.664 2°55.959 3 329 3.7 101280 44
2010-11-17 07:32:42 51°13.664 2°55.959 1.3 331 3.7 101280 44
2010-11-17 07:32:47 51°13.664 2°55.958 2.9 328 3.7 101280 43
2010-11-17 07:32:52 51°13.664 2°55.959 2.6 323 3.7 101280 43
2010-11-17 07:32:56 51°13.664 2°55.959 2.6 337 3.7 101280 45
2010-11-17 07:33:01 51°13.664 2°55.959 1.6 327 3.7 101280 45
2010-11-17 07:33:08 51°13.665 2°55.959 3.2 328 3.7 101280 42
2010-11-17 07:33:12 51°13.665 2°55.959 3.4 329 3.7 101280 42
2010-11-17 07:33:16 51°13.665 2°55.959 3 328 3.7 101290 44
2010-11-17 07:33:21 51°13.665 2°55.959 3.4 328 3.7 101290 44
2010-11-17 07:33:27 51°13.665 2°55.96 3.2 332 3.7 101280 42
2010-11-17 07:33:32 51°13.665 2°55.96 0.6 335 3.7 101280 42
2010-11-17 07:33:37 51°13.665 2°55.96 1.3 322 3.7 101290 42
2010-11-17 07:33:41 51°13.665 2°55.96 0.5 330 3.7 101290 42
2010-11-17 07:33:47 51°13.666 2°55.96 0.2 331 3.7 101280 43
2010-11-17 07:33:53 51°13.666 2°55.96 0.1 329 3.7 101280 43
2010-11-17 07:33:57 51°13.667 2°55.96 0.1 330 3.7 101280 44
2010-11-17 07:34:02 51°13.667 2°55.96 -999 327 3.7 101280 44
2010-11-17 07:34:07 51°13.667 2°55.96 -999 331 3.7 101290 43
2010-11-17 07:34:12 51°13.667 2°55.96 0.7 327 3.7 101290 43
2010-11-17 07:34:17 51°13.666 2°55.96 0.2 332 3.7 101280 43
2010-11-17 07:34:22 51°13.665 2°55.96 0.1 335 3.7 101280 43
2010-11-17 07:34:27 51°13.665 2°55.959 0.1 325 3.7 101290 42
2010-11-17 07:34:32 51°13.664 2°55.959 0.1 331 3.7 101290 42
2010-11-17 07:34:37 51°13.662 2°55.959 0.1 336 3.7 101280 43
2010-11-17 07:34:42 51°13.662 2°55.958 0.2 326 3.7 101280 43
2010-11-17 07:34:47 51°13.662 2°55.957 0.1 327 3.7 101290 43
2010-11-17 07:34:52 51°13.662 2°55.958 -999 320 3.7 101290 43
2010-11-17 07:34:57 51°13.662 2°55.959 -999 321 3.7 101280 43
2010-11-17 07:35:02 51°13.662 2°55.959 0.1 316 3.7 101280 43
2010-11-17 07:35:07 51°13.663 2°55.959 2.8 318 3.7 101290 43
2010-11-17 07:35:12 51°13.665 2°55.959 0.6 324 3.7 101290 43
2010-11-17 07:35:17 51°13.664 2°55.96 1.5 332 3.7 101280 43
2010-11-17 07:35:21 51°13.665 2°55.96 4.2 304 3.7 101280 43
2010-11-17 07:35:27 51°13.665 2°55.96 4.5 328 3.7 101290 45
2010-11-17 07:35:32 51°13.665 2°55.96 4.1 334 3.7 101290 45
2010-11-17 07:35:37 51°13.665 2°55.96 4.5 327 3.7 101290 43
2010-11-17 07:35:41 51°13.664 2°55.96 4.8 332 3.7 101290 43
2010-11-17 07:35:47 51°13.664 2°55.959 4.5 335 3.7 101290 44
2010-11-17 07:35:52 51°13.664 2°55.959 3.5 329 3.7 101290 44
2010-11-17 07:35:57 51°13.664 2°55.959 4 327 3.6 101290 44
2010-11-17 07:36:01 51°13.665 2°55.959 2.4 330 3.6 101290 44
2010-11-17 07:36:06 51°13.664 2°55.959 2.7 332 3.6 101290 44
2010-11-17 07:36:12 51°13.664 2°55.959 2.9 324 3.6 101290 44
2010-11-17 07:36:17 51°13.664 2°55.959 2.8 329 3.6 101280 42
2010-11-17 07:36:22 51°13.665 2°55.959 4.2 326 3.6 101280 42
2010-11-17 07:36:26 51°13.665 2°55.959 3.7 324 3.6 101290 44
2010-11-17 07:36:32 51°13.665 2°55.959 2.6 335 3.6 101290 44
2010-11-17 07:36:37 51°13.665 2°55.959 1.8 337 3.6 101290 44
2010-11-17 07:36:41 51°13.664 2°55.959 3.5 330 3.6 101290 44
2010-11-17 07:36:46 51°13.664 2°55.96 4.4 331 3.6 101290 45
2010-11-17 07:36:52 51°13.664 2°55.959 3.3 340 3.6 101290 45
2010-11-17 07:36:57 51°13.664 2°55.96 3.8 332 3.6 101290 42
2010-11-17 07:37:01 51°13.665 2°55.959 5 330 3.6 101290 42
2010-11-17 07:37:06 51°13.665 2°55.96 5.3 330 3.6 101290 41
2010-11-17 07:37:12 51°13.665 2°55.96 5.2 331 3.6 101290 41
2010-11-17 07:37:16 51°13.666 2°55.96 4.9 328 3.6 101290 45
2010-11-17 07:37:21 51°13.665 2°55.96 4.8 333 3.6 101290 45
2010-11-17 07:37:26 51°13.665 2°55.96 5.2 334 3.6 101290 43
2010-11-17 07:37:32 51°13.666 2°55.96 5.3 332 3.6 101290 43
2010-11-17 07:37:37 51°13.666 2°55.96 6 329 3.6 101290 43
2010-11-17 07:37:41 51°13.665 2°55.959 6.1 333 3.6 101290 43
2010-11-17 07:37:47 51°13.664 2°55.959 5.9 334 3.6 101290 42
2010-11-17 07:37:52 51°13.663 2°55.958 5.5 329 3.6 101290 42
2010-11-17 07:37:58 51°13.662 2°55.958 5.7 333 3.6 101280 43
2010-11-17 07:38:01 51°13.662 2°55.957 4.7 328 3.6 101280 43
2010-11-17 07:38:07 51°13.661 2°55.956 4.9 335 3.6 101290 43
2010-11-17 07:38:12 51°13.66 2°55.957 4.3 335 3.6 101290 43
2010-11-17 07:38:17 51°13.661 2°55.957 4.2 334 3.5 101290 41
2010-11-17 07:38:21 51°13.662 2°55.958 2.9 325 3.5 101290 41
2010-11-17 07:38:26 51°13.663 2°55.958 2.5 320 3.5 101290 44
2010-11-17 07:38:32 51°13.663 2°55.959 3.3 326 3.5 101290 44
2010-11-17 07:38:38 51°13.663 2°55.958 3.8 327 3.5 101290 44
2010-11-17 07:38:41 51°13.663 2°55.958 4.9 332 3.5 101290 44
2010-11-17 07:38:45 51°13.662 2°55.959 4.3 328 3.5 101290 42
2010-11-17 07:38:51 51°13.663 2°55.959 4 335 3.5 101290 42
2010-11-17 07:38:57 51°13.663 2°55.959 3.4 329 3.6 101290 42
2010-11-17 07:39:01 51°13.663 2°55.959 5.2 339 3.6 101290 42
2010-11-17 07:39:05 51°13.663 2°55.958 4.6 334 3.6 101290 44
2010-11-17 07:39:12 51°13.663 2°55.958 4.5 335 3.6 101290 44
2010-11-17 07:39:17 51°13.663 2°55.958 5.1 338 3.6 101290 44
2010-11-17 07:39:21 51°13.664 2°55.958 3.6 321 3.6 101290 44
2010-11-17 07:39:27 51°13.664 2°55.959 4 328 3.6 101290 44
2010-11-17 07:39:32 51°13.664 2°55.958 4 281 3.6 101290 44
2010-11-17 07:39:37 51°13.664 2°55.959 4 281 3.6 101290 44
2010-11-17 07:39:42 51°13.664 2°55.959 4 281 3.6 101290 44
2010-11-17 07:39:47 51°13.663 2°55.959 4 281 3.6 101290 44
2010-11-17 07:39:52 51°13.663 2°55.959 4 281 3.6 101290 44
2010-11-17 07:39:57 51°13.663 2°55.959 4 281 -999 -999 -999
2010-11-17 07:40:02 51°13.664 2°55.959 -999 -999 -999 -999 -999
2010-11-17 07:40:07 51°13.664 2°55.959 -999 -999 -999 -999 -999
2010-11-17 07:40:13 51°13.664 2°55.959 4.2 330 -999 -999 -999
2010-11-17 07:40:17 51°13.664 2°55.959 4 325 -999 -999 -999
2010-11-17 07:40:21 51°13.664 2°55.959 3.9 334 -999 -999 -999
2010-11-17 07:40:26 51°13.664 2°55.959 4.3 335 -999 -999 -999
2010-11-17 07:40:32 51°13.665 2°55.959 3.7 337 -999 -999 -999
2010-11-17 07:40:38 51°13.665 2°55.959 4.8 338 3.6 -999 36
2010-11-17 07:40:41 51°13.665 2°55.959 4.5 335 3.6 -999 36
2010-11-17 07:40:45 51°13.664 2°55.959 5 327 3.6 -999 45
2010-11-17 07:40:52 51°13.663 2°55.959 5 332 3.6 -999 45
2010-11-17 07:40:57 51°13.663 2°55.959 4.6 329 3.6 101290 43
2010-11-17 07:41:01 51°13.663 2°55.959 5.2 333 3.6 101290 43
2010-11-17 07:41:06 51°13.662 2°55.959 4.8 332 3.6 101290 44
2010-11-17 07:41:12 51°13.662 2°55.959 3 328 3.6 101290 44
2010-11-17 07:41:17 51°13.662 2°55.959 2.8 330 3.6 101280 44
2010-11-17 07:41:21 51°13.662 2°55.959 2.8 329 3.6 101280 44
2010-11-17 07:41:27 51°13.662 2°55.96 2.1 329 3.6 101290 44
2010-11-17 07:41:32 51°13.663 2°55.959 5.7 327 3.6 101290 44
2010-11-17 07:41:37 51°13.662 2°55.959 5.4 328 3.6 101290 42
2010-11-17 07:41:41 51°13.662 2°55.959 4.5 331 3.6 101290 42
2010-11-17 07:41:46 51°13.663 2°55.959 5.6 327 3.6 101290 43
2010-11-17 07:41:52 51°13.663 2°55.96 4.9 331 3.6 101290 43
2010-11-17 07:41:57 51°13.663 2°55.96 5.3 329 3.6 101280 42
2010-11-17 07:42:01 51°13.663 2°55.96 5.2 323 3.6 101280 42
2010-11-17 07:42:07 51°13.663 2°55.96 5 330 3.6 101290 42
2010-11-17 07:42:12 51°13.663 2°55.96 4.4 330 3.6 101290 42
2010-11-17 07:42:16 51°13.663 2°55.96 5.3 339 3.6 101280 42
2010-11-17 07:42:21 51°13.663 2°55.96 2.6 331 3.6 101280 42
2010-11-17 07:42:25 51°13.662 2°55.96 4.1 333 3.6 101290 42
2010-11-17 07:42:32 51°13.663 2°55.96 4.5 338 3.6 101290 42
2010-11-17 07:42:37 51°13.664 2°55.961 4.6 335 3.6 101280 42
2010-11-17 07:42:41 51°13.664 2°55.961 4.8 337 3.6 101280 42
2010-11-17 07:42:45 51°13.665 2°55.961 4.1 328 3.6 101280 42
2010-11-17 07:42:52 51°13.664 2°55.961 3.7 328 3.6 101280 42
2010-11-17 07:42:57 51°13.664 2°55.961 4.5 337 3.6 101290 44
2010-11-17 07:43:01 51°13.664 2°55.961 5.7 331 3.6 101290 44
2010-11-17 07:43:06 51°13.665 2°55.961 3.6 335 3.6 101290 42
2010-11-17 07:43:11 51°13.664 2°55.96 5.1 331 3.6 101290 42
2010-11-17 07:43:17 51°13.664 2°55.96 5.2 335 3.6 101290 41
2010-11-17 07:43:21 51°13.664 2°55.96 4.4 328 3.6 101290 41
2010-11-17 07:43:25 51°13.664 2°55.96 3.1 319 3.6 101290 42
2010-11-17 07:43:32 51°13.664 2°55.96 4.3 328 3.6 101290 42
2010-11-17 07:43:37 51°13.664 2°55.96 4.4 334 3.6 101290 45
2010-11-17 07:43:41 51°13.664 2°55.96 3.5 329 3.6 101290 45
2010-11-17 07:43:47 51°13.664 2°55.961 4.4 328 3.6 101290 43
2010-11-17 07:43:52 51°13.664 2°55.961 3.9 331 3.6 101290 43
2010-11-17 07:43:56 51°13.664 2°55.96 4.5 328 3.6 101290 44
2010-11-17 07:44:01 51°13.664 2°55.96 4.1 327 3.6 101290 44
2010-11-17 07:44:07 51°13.664 2°55.96 3.7 328 3.6 101290 44
2010-11-17 07:44:12 51°13.663 2°55.961 2.6 332 3.6 101290 44
2010-11-17 07:44:17 51°13.664 2°55.961 4.4 331 3.6 101290 42
2010-11-17 07:44:21 51°13.664 2°55.961 3.6 327 3.6 101290 42
2010-11-17 07:44:26 51°13.664 2°55.961 2.8 327 3.6 101290 44
2010-11-17 07:44:32 51°13.664 2°55.961 3.7 332 3.6 101290 44
2010-11-17 07:44:37 51°13.665 2°55.962 3.2 329 3.6 101290 41
2010-11-17 07:44:41 51°13.665 2°55.962 3.3 323 3.6 101290 41
2010-11-17 07:44:45 51°13.665 2°55.962 1.8 326 3.6 101290 41
2010-11-17 07:44:52 51°13.666 2°55.963 3.5 327 3.6 101290 41
2010-11-17 07:44:57 51°13.666 2°55.963 3.7 324 3.6 101290 42
2010-11-17 07:45:01 51°13.667 2°55.962 3.1 304 3.6 101290 42
2010-11-17 07:45:05 51°13.666 2°55.963 3 334 3.6 101290 41
2010-11-17 07:45:12 51°13.666 2°55.962 4.1 327 3.6 101290 41
2010-11-17 07:45:17 51°13.666 2°55.962 4.2 325 3.6 101290 41
2010-11-17 07:45:21 51°13.666 2°55.962 3.2 332 3.6 101290 41
2010-11-17 07:45:26 51°13.665 2°55.962 3.5 323 3.6 101290 43
2010-11-17 07:45:32 51°13.663 2°55.961 2.1 328 3.6 101290 43
2010-11-17 07:45:38 51°13.663 2°55.959 3.4 332 3.6 101290 41
2010-11-17 07:45:42 51°13.663 2°55.958 4.2 329 3.6 101290 41
2010-11-17 07:45:47 51°13.662 2°55.958 4.5 330 3.6 101290 44
2010-11-17 07:45:52 51°13.661 2°55.959 4.4 336 3.6 101290 44
2010-11-17 07:45:57 51°13.662 2°55.959 4.3 336 3.6 101290 44
2010-11-17 07:46:02 51°13.662 2°55.959 4.7 338 3.6 101290 44
2010-11-17 07:46:07 51°13.663 2°55.96 4.8 336 3.7 101290 44
2010-11-17 07:46:12 51°13.663 2°55.96 3.8 331 3.7 101290 44
2010-11-17 07:46:17 51°13.664 2°55.961 4.6 329 3.6 101290 41
2010-11-17 07:46:22 51°13.664 2°55.961 5 332 3.6 101290 41
2010-11-17 07:46:27 51°13.663 2°55.96 4.7 336 3.6 101290 44
2010-11-17 07:46:32 51°13.662 2°55.959 4.3 329 3.6 101290 44
2010-11-17 07:46:37 51°13.662 2°55.959 3.4 325 3.6 101290 42
2010-11-17 07:46:42 51°13.662 2°55.96 4.3 307 3.6 101290 42
2010-11-17 07:46:47 51°13.662 2°55.959 3.3 328 3.7 101290 41
2010-11-17 07:46:52 51°13.662 2°55.959 1.4 331 3.7 101290 41
2010-11-17 07:46:57 51°13.661 2°55.959 2.7 332 3.7 101280 41
2010-11-17 07:47:02 51°13.661 2°55.959 4 331 3.7 101280 41
2010-11-17 07:47:06 51°13.661 2°55.959 4.8 328 3.7 101290 41
2010-11-17 07:47:12 51°13.663 2°55.959 3.4 331 3.7 101290 41
2010-11-17 07:47:17 51°13.663 2°55.96 3.8 320 3.7 101280 42
2010-11-17 07:47:22 51°13.664 2°55.96 4.1 303 3.7 101280 42
2010-11-17 07:47:26 51°13.665 2°55.96 4.3 328 3.6 101290 41
2010-11-17 07:47:32 51°13.665 2°55.959 4.4 328 3.6 101290 41
2010-11-17 07:47:37 51°13.664 2°55.96 3.1 327 3.7 101290 41
2010-11-17 07:47:42 51°13.664 2°55.961 2.8 327 3.7 101290 41
2010-11-17 07:47:46 51°13.664 2°55.961 3.9 328 3.7 101290 42
2010-11-17 07:47:52 51°13.666 2°55.961 1.9 327 3.7 101290 42
2010-11-17 07:47:58 51°13.665 2°55.961 3.4 332 3.7 101290 44
2010-11-17 07:48:02 51°13.665 2°55.961 1.4 333 3.7 101290 44
2010-11-17 07:48:06 51°13.666 2°55.962 1 330 3.6 101290 42
2010-11-17 07:48:13 51°13.666 2°55.962 4 333 3.6 101290 42
2010-11-17 07:48:17 51°13.667 2°55.962 3.3 335 3.6 101290 41
2010-11-17 07:48:22 51°13.667 2°55.962 2.5 335 3.6 101290 41
2010-11-17 07:48:26 51°13.667 2°55.962 3.5 329 3.6 101290 42
2010-11-17 07:48:31 51°13.668 2°55.962 4.3 335 3.6 101290 42
2010-11-17 07:48:36 51°13.668 2°55.963 4.4 335 3.6 101290 44
2010-11-17 07:48:42 51°13.668 2°55.963 3.8 332 3.6 101290 44
2010-11-17 07:48:46 51°13.668 2°55.963 3.2 325 3.6 101290 45
2010-11-17 07:48:52 51°13.665 2°55.962 3.3 329 3.6 101290 45
2010-11-17 07:48:58 51°13.664 2°55.961 2.4 328 3.6 101290 44
2010-11-17 07:49:02 51°13.664 2°55.961 3.4 331 3.6 101290 44
2010-11-17 07:49:06 51°13.665 2°55.961 3.3 321 3.6 101290 44
2010-11-17 07:49:12 51°13.664 2°55.961 2.1 324 3.6 101290 44
2010-11-17 07:49:17 51°13.666 2°55.962 2.6 320 3.6 101290 42
2010-11-17 07:49:22 51°13.667 2°55.963 2.8 331 3.6 101290 42
2010-11-17 07:49:26 51°13.667 2°55.963 3.1 324 3.7 101290 45
2010-11-17 07:49:32 51°13.666 2°55.962 5.3 331 3.7 101290 45
2010-11-17 07:49:37 51°13.665 2°55.962 4.5 336 3.7 101290 41
2010-11-17 07:49:43 51°13.666 2°55.962 4.4 340 3.7 101290 41
2010-11-17 07:49:46 51°13.667 2°55.962 4.5 335 3.7 101290 41
2010-11-17 07:49:51 51°13.667 2°55.962 4.4 329 3.7 101290 41
2010-11-17 07:49:57 51°13.665 2°55.962 4.2 331 3.6 101290 45
2010-11-17 07:50:02 51°13.665 2°55.961 3.2 328 3.6 101290 45
2010-11-17 07:50:06 51°13.665 2°55.961 4.7 330 3.7 101290 44
2010-11-17 07:50:11 51°13.664 2°55.961 4.6 327 3.7 101290 44
2010-11-17 07:50:17 51°13.665 2°55.961 4.2 324 3.6 101290 42
2010-11-17 07:50:22 51°13.664 2°55.961 3.3 331 3.6 101290 42
2010-11-17 07:50:26 51°13.664 2°55.961 4.7 320 3.7 101290 44
2010-11-17 07:50:31 51°13.665 2°55.96 3.4 304 3.7 101290 44
2010-11-17 07:50:38 51°13.664 2°55.96 2.2 331 3.7 101290 44
2010-11-17 07:50:43 51°13.664 2°55.96 2.2 325 3.7 101290 44
2010-11-17 07:50:46 51°13.664 2°55.96 2.6 319 3.7 101290 41
2010-11-17 07:50:51 51°13.663 2°55.96 5 329 3.7 101290 41
2010-11-17 07:50:56 51°13.664 2°55.96 5.8 327 3.7 101290 41
2010-11-17 07:51:03 51°13.663 2°55.96 5.6 328 3.7 101290 41
2010-11-17 07:51:06 51°13.663 2°55.96 4.7 329 3.7 101290 43
2010-11-17 07:51:11 51°13.663 2°55.96 4.5 329 3.7 101290 43
2010-11-17 07:51:17 51°13.663 2°55.96 4.7 336 3.6 101290 42
2010-11-17 07:51:22 51°13.662 2°55.96 5.2 327 3.6 101290 42
2010-11-17 07:51:26 51°13.663 2°55.959 4.1 329 3.6 101280 44
2010-11-17 07:51:32 51°13.663 2°55.96 4.8 330 3.6 101280 44
2010-11-17 07:51:38 51°13.663 2°55.96 4 324 3.6 101280 42
2010-11-17 07:51:43 51°13.663 2°55.96 3.9 304 3.6 101280 42
2010-11-17 07:51:47 51°13.662 2°55.96 2.8 325 3.6 101280 41
2010-11-17 07:51:52 51°13.661 2°55.96 3.4 304 3.6 101280 41
2010-11-17 07:51:57 51°13.662 2°55.959 4.6 320 3.6 101290 44
2010-11-17 07:52:02 51°13.662 2°55.959 4.2 327 3.6 101290 44
2010-11-17 07:52:06 51°13.662 2°55.958 3.7 324 3.6 101280 42
2010-11-17 07:52:12 51°13.662 2°55.958 3.4 329 3.6 101280 42
2010-11-17 07:52:18 51°13.662 2°55.959 4.1 328 3.6 101290 44
2010-11-17 07:52:22 51°13.662 2°55.959 5.3 303 3.6 101290 44
2010-11-17 07:52:26 51°13.662 2°55.958 4.1 332 3.6 101280 42
2010-11-17 07:52:31 51°13.662 2°55.959 4.9 331 3.6 101280 42
2010-11-17 07:52:37 51°13.663 2°55.959 4.2 327 3.6 101280 43
2010-11-17 07:52:42 51°13.663 2°55.959 4.2 326 3.6 101280 43
2010-11-17 07:52:46 51°13.664 2°55.959 3.8 329 3.6 101280 41
2010-11-17 07:52:51 51°13.663 2°55.96 4.2 328 3.6 101280 41
2010-11-17 07:52:56 51°13.663 2°55.96 3.7 333 3.6 101280 41
2010-11-17 07:53:02 51°13.664 2°55.961 3.3 332 3.6 101280 41
2010-11-17 07:53:06 51°13.664 2°55.961 3.5 325 3.6 101280 42
2010-11-17 07:53:11 51°13.665 2°55.961 3.2 337 3.6 101280 42
2010-11-17 07:53:17 51°13.664 2°55.961 2.8 327 3.6 101280 44
2010-11-17 07:53:22 51°13.664 2°55.961 4.5 337 3.6 101280 44
2010-11-17 07:53:26 51°13.663 2°55.961 4.1 331 3.6 101280 44
2010-11-17 07:53:32 51°13.664 2°55.961 2.6 331 3.6 101280 44
2010-11-17 07:53:37 51°13.664 2°55.961 2.5 328 3.6 101280 44
2010-11-17 07:53:42 51°13.664 2°55.96 2.7 326 3.6 101280 44
2010-11-17 07:53:47 51°13.665 2°55.961 4.6 326 3.6 101280 42
2010-11-17 07:53:52 51°13.665 2°55.961 4.8 331 3.6 101280 42
2010-11-17 07:53:57 51°13.665 2°55.961 4.4 322 3.6 101280 42
2010-11-17 07:54:02 51°13.664 2°55.961 4.5 310 3.6 101280 42
2010-11-17 07:54:07 51°13.664 2°55.961 3.7 321 3.6 101280 43
2010-11-17 07:54:12 51°13.664 2°55.961 3.6 325 3.6 101280 43
2010-11-17 07:54:17 51°13.665 2°55.961 3.7 320 3.6 101280 41
2010-11-17 07:54:22 51°13.665 2°55.961 5.2 327 3.6 101280 41
2010-11-17 07:54:27 51°13.664 2°55.961 4.5 337 3.6 101280 42
2010-11-17 07:54:32 51°13.663 2°55.96 4.3 306 3.6 101280 42
2010-11-17 07:54:37 51°13.662 2°55.96 4.4 324 3.5 101280 44
2010-11-17 07:54:42 51°13.662 2°55.959 4.8 329 3.5 101280 44
2010-11-17 07:54:47 51°13.663 2°55.96 5.7 327 3.5 101280 42
2010-11-17 07:54:52 51°13.663 2°55.96 5.4 332 3.5 101280 42
2010-11-17 07:54:57 51°13.663 2°55.959 5 333 3.5 101280 43
2010-11-17 07:55:03 51°13.663 2°55.959 4.5 334 3.5 101280 43
2010-11-17 07:55:07 51°13.662 2°55.96 5.3 335 3.5 101280 42
2010-11-17 07:55:12 51°13.663 2°55.96 5.9 326 3.5 101280 42
2010-11-17 07:55:17 51°13.663 2°55.96 5.1 333 3.5 101270 42
2010-11-17 07:55:22 51°13.663 2°55.96 5 329 3.5 101270 42
2010-11-17 07:55:27 51°13.663 2°55.96 5.5 321 3.5 101280 42
2010-11-17 07:55:32 51°13.663 2°55.96 5 326 3.5 101280 42
2010-11-17 07:55:37 51°13.663 2°55.96 5.2 325 3.5 101280 44
2010-11-17 07:55:42 51°13.663 2°55.959 5 304 3.5 101280 44
2010-11-17 07:55:47 51°13.663 2°55.96 4.5 319 3.5 101280 42
2010-11-17 07:55:51 51°13.663 2°55.96 3 330 3.5 101280 42
2010-11-17 07:55:57 51°13.663 2°55.96 1.6 336 3.5 101270 42
2010-11-17 07:56:02 51°13.664 2°55.96 0.6 333 3.5 101270 42
2010-11-17 07:56:07 51°13.664 2°55.96 1.7 330 3.5 101270 41
2010-11-17 07:56:11 51°13.664 2°55.96 3.3 333 3.5 101270 41
2010-11-17 07:56:17 51°13.664 2°55.961 2.2 326 3.4 101270 44
2010-11-17 07:56:22 51°13.664 2°55.961 4.1 305 3.4 101270 44
2010-11-17 07:56:27 51°13.665 2°55.961 4.2 323 3.5 101280 41
2010-11-17 07:56:31 51°13.665 2°55.961 4.4 330 3.5 101280 41
2010-11-17 07:56:37 51°13.665 2°55.962 5 327 3.4 101280 45
2010-11-17 07:56:42 51°13.665 2°55.962 4 328 3.4 101280 45
2010-11-17 07:56:47 51°13.664 2°55.961 4.2 329 3.4 101280 44
2010-11-17 07:56:51 51°13.664 2°55.96 5 327 3.4 101280 44
2010-11-17 07:56:57 51°13.663 2°55.961 5.1 331 3.4 101280 44
2010-11-17 07:57:02 51°13.663 2°55.961 4.3 331 3.4 101280 44
2010-11-17 07:57:07 51°13.663 2°55.96 4.5 338 3.4 101270 44
2010-11-17 07:57:11 51°13.663 2°55.96 2.3 310 3.4 101270 44
2010-11-17 07:57:16 51°13.663 2°55.96 2.9 327 3.4 101270 42
2010-11-17 07:57:22 51°13.663 2°55.96 3.1 322 3.4 101270 42
2010-11-17 07:57:27 51°13.662 2°55.96 4.4 22 3.4 101270 44
2010-11-17 07:57:31 51°13.662 2°55.96 2.8 330 3.4 101270 44
2010-11-17 07:57:35 51°13.662 2°55.96 2.7 318 3.4 101270 42
2010-11-17 07:57:42 51°13.662 2°55.96 6.1 325 3.4 101270 42
2010-11-17 07:57:47 51°13.662 2°55.96 4.6 325 3.4 101270 42
2010-11-17 07:57:51 51°13.663 2°55.96 5.7 305 3.4 101270 42
2010-11-17 07:57:57 51°13.663 2°55.961 6.7 327 3.5 101270 42
2010-11-17 07:58:02 51°13.663 2°55.961 6.1 325 3.5 101270 42
2010-11-17 07:58:07 51°13.663 2°55.96 6.2 325 3.4 101270 42
2010-11-17 07:58:11 51°13.664 2°55.96 6.9 325 3.4 101270 42
2010-11-17 07:58:16 51°13.664 2°55.96 5.9 321 3.4 101270 43
2010-11-17 07:58:22 51°13.664 2°55.96 5.3 327 3.4 101270 43
2010-11-17 07:58:27 51°13.664 2°55.96 4.7 326 3.4 101270 42
2010-11-17 07:58:31 51°13.664 2°55.96 4.6 333 3.4 101270 42
2010-11-17 07:58:37 51°13.664 2°55.96 3.1 329 3.4 101270 43
2010-11-17 07:58:42 51°13.666 2°55.961 4.2 320 3.4 101270 43
2010-11-17 07:58:46 51°13.669 2°55.964 4.9 331 3.4 101260 41
2010-11-17 07:58:51 51°13.671 2°55.966 4.6 337 3.4 101260 41
2010-11-17 07:58:57 51°13.673 2°55.968 4.1 317 3.4 101270 40
2010-11-17 07:59:02 51°13.671 2°55.966 3.9 333 3.4 101270 40
2010-11-17 07:59:07 51°13.67 2°55.966 2.9 330 3.4 101270 43
2010-11-17 07:59:12 51°13.672 2°55.967 3.2 334 3.4 101270 43
2010-11-17 07:59:17 51°13.67 2°55.965 3.8 326 3.4 101260 42
2010-11-17 07:59:23 51°13.669 2°55.965 1.8 304 3.4 101260 42
2010-11-17 07:59:28 51°13.668 2°55.962 2.1 329 3.4 101270 42
2010-11-17 07:59:32 51°13.666 2°55.961 2.9 302 3.4 101270 42
2010-11-17 07:59:37 51°13.665 2°55.961 4.2 325 3.4 101270 44
2010-11-17 07:59:43 51°13.665 2°55.961 4.7 308 3.4 101270 44
2010-11-17 07:59:47 51°13.666 2°55.961 4.6 327 3.4 101270 44
2010-11-17 07:59:52 51°13.665 2°55.961 5.2 328 3.4 101270 44
2010-11-17 07:59:57 51°13.665 2°55.961 3.6 335 3.4 101270 44
2010-11-17 08:00:02 51°13.665 2°55.961 5.2 331 3.4 101270 44
2010-11-17 08:00:08 51°13.665 2°55.962 5.2 335 3.4 101260 44
2010-11-17 08:00:12 51°13.665 2°55.961 5.4 331 3.4 101260 44
2010-11-17 08:00:17 51°13.664 2°55.962 4.9 332 3.4 101260 44
2010-11-17 08:00:22 51°13.664 2°55.961 4.5 305 3.4 101260 44
2010-11-17 08:00:28 51°13.664 2°55.961 5.5 324 3.4 101260 44
2010-11-17 08:00:32 51°13.664 2°55.961 3.8 324 3.4 101260 44
2010-11-17 08:00:37 51°13.665 2°55.961 2.5 326 3.4 101260 42
2010-11-17 08:00:43 51°13.663 2°55.961 2.6 304 3.4 101260 42
2010-11-17 08:00:47 51°13.663 2°55.961 0.7 318 3.4 101260 44
2010-11-17 08:00:52 51°13.664 2°55.96 1.9 331 3.4 101260 44
2010-11-17 08:00:57 51°13.664 2°55.96 0.9 320 3.4 101260 42
2010-11-17 08:01:02 51°13.664 2°55.96 1.9 331 3.4 101260 42
2010-11-17 08:01:08 51°13.664 2°55.96 4.2 335 3.4 101260 45
2010-11-17 08:01:12 51°13.664 2°55.96 1.9 324 3.4 101260 45
2010-11-17 08:01:17 51°13.663 2°55.96 2.6 329 3.4 101260 45
2010-11-17 08:01:23 51°13.663 2°55.959 2.3 335 3.4 101260 45
2010-11-17 08:01:27 51°13.663 2°55.959 2 337 3.4 101270 42
2010-11-17 08:01:32 51°13.663 2°55.959 0.1 327 3.4 101270 42
2010-11-17 08:01:37 51°13.663 2°55.96 0.1 328 3.5 101260 41
2010-11-17 08:01:43 51°13.663 2°55.96 -999 325 3.5 101260 41
2010-11-17 08:01:48 51°13.662 2°55.96 2 318 3.5 101260 43
2010-11-17 08:01:52 51°13.662 2°55.96 4.6 304 3.5 101260 43
2010-11-17 08:01:56 51°13.662 2°55.959 4.5 329 3.5 101260 43
2010-11-17 08:02:03 51°13.663 2°55.96 4.1 304 3.5 101260 43
2010-11-17 08:02:08 51°13.665 2°55.962 2.4 330 3.4 101260 41
2010-11-17 08:02:12 51°13.664 2°55.962 4.5 329 3.4 101260 41
2010-11-17 08:02:17 51°13.666 2°55.963 4.4 328 3.4 101260 44
2010-11-17 08:02:22 51°13.667 2°55.964 4.6 331 3.4 101260 44
2010-11-17 08:02:27 51°13.667 2°55.964 4.3 328 3.4 101260 42
2010-11-17 08:02:32 51°13.665 2°55.962 3.2 331 3.4 101260 42
2010-11-17 08:02:37 51°13.663 2°55.961 4.1 338 3.4 101260 42
2010-11-17 08:02:42 51°13.662 2°55.96 4.3 304 3.4 101260 42
2010-11-17 08:02:47 51°13.662 2°55.96 4.9 334 3.4 101260 44
2010-11-17 08:02:52 51°13.662 2°55.96 4.9 335 3.4 101260 44
2010-11-17 08:02:57 51°13.662 2°55.96 3.6 324 3.4 101260 41
2010-11-17 08:03:03 51°13.662 2°55.959 2.9 339 3.4 101260 41
2010-11-17 08:03:07 51°13.662 2°55.96 2.2 329 3.4 101270 44
2010-11-17 08:03:13 51°13.662 2°55.959 4.4 337 3.4 101270 44
2010-11-17 08:03:17 51°13.662 2°55.96 3.7 332 3.5 101260 43
2010-11-17 08:03:22 51°13.662 2°55.96 3.7 331 3.5 101260 43
2010-11-17 08:03:27 51°13.662 2°55.959 3.9 330 3.5 101270 41
2010-11-17 08:03:32 51°13.662 2°55.96 4.2 326 3.5 101270 41
2010-11-17 08:03:37 51°13.662 2°55.959 4.1 336 3.5 101260 44
2010-11-17 08:03:42 51°13.662 2°55.959 4.6 305 3.5 101260 44
2010-11-17 08:03:47 51°13.662 2°55.959 4.1 328 3.5 101260 41
2010-11-17 08:03:52 51°13.661 2°55.96 3.3 306 3.5 101260 41
2010-11-17 08:03:57 51°13.661 2°55.96 1.4 330 3.5 101260 43
2010-11-17 08:04:02 51°13.661 2°55.96 3.6 331 3.5 101260 43
2010-11-17 08:04:07 51°13.661 2°55.96 3.5 327 3.5 101260 44
2010-11-17 08:04:12 51°13.661 2°55.96 3 302 3.5 101260 44
2010-11-17 08:04:17 51°13.661 2°55.96 4 331 3.5 101260 44
2010-11-17 08:04:22 51°13.661 2°55.959 0.4 304 3.5 101260 44
2010-11-17 08:04:27 51°13.661 2°55.959 0.1 330 3.5 101260 41
2010-11-17 08:04:32 51°13.661 2°55.959 0.1 325 3.5 101260 41
2010-11-17 08:04:37 51°13.661 2°55.959 -999 330 3.5 101260 44
2010-11-17 08:04:42 51°13.66 2°55.959 -999 333 3.5 101260 44
2010-11-17 08:04:47 51°13.661 2°55.959 -999 327 3.5 101260 43
2010-11-17 08:04:52 51°13.661 2°55.959 -999 332 3.5 101260 43
2010-11-17 08:04:57 51°13.661 2°55.959 -999 330 3.5 101260 43
2010-11-17 08:05:02 51°13.66 2°55.959 -999 327 3.5 101260 43
2010-11-17 08:05:07 51°13.66 2°55.96 -999 320 3.5 101260 43
2010-11-17 08:05:12 51°13.661 2°55.959 -999 324 3.5 101260 43
2010-11-17 08:05:17 51°13.661 2°55.959 -999 329 3.5 101260 43
2010-11-17 08:05:22 51°13.66 2°55.959 -999 324 3.5 101260 43
2010-11-17 08:05:27 51°13.66 2°55.959 -999 334 3.5 101260 43
2010-11-17 08:05:32 51°13.66 2°55.959 -999 335 3.5 101260 43
2010-11-17 08:05:37 51°13.66 2°55.959 -999 327 3.5 101260 43
2010-11-17 08:05:42 51°13.66 2°55.959 -999 329 3.5 101260 43
2010-11-17 08:05:47 51°13.661 2°55.959 -999 336 3.5 101260 43
2010-11-17 08:05:52 51°13.661 2°55.959 -999 334 3.5 101260 43
2010-11-17 08:05:57 51°13.662 2°55.959 -999 322 3.5 101260 43
2010-11-17 08:06:02 51°13.661 2°55.959 -999 331 3.5 101260 43
2010-11-17 08:06:07 51°13.66 2°55.959 -999 327 3.5 101260 43
2010-11-17 08:06:12 51°13.66 2°55.959 -999 332 3.5 101260 43
2010-11-17 08:06:17 51°13.66 2°55.959 -999 319 3.5 101260 43
2010-11-17 08:06:22 51°13.661 2°55.959 -999 307 3.5 101260 43
2010-11-17 08:06:27 51°13.661 2°55.959 -999 328 3.5 101260 43
2010-11-17 08:06:32 51°13.66 2°55.958 -999 332 3.5 101260 43
2010-11-17 08:06:36 51°13.661 2°55.958 -999 334 3.5 101260 43
2010-11-17 08:06:42 51°13.66 2°55.959 -999 328 3.5 101260 43
2010-11-17 08:06:47 51°13.66 2°55.959 -999 333 3.6 101260 43
2010-11-17 08:06:52 51°13.661 2°55.959 -999 331 3.6 101260 43
2010-11-17 08:06:56 51°13.661 2°55.959 -999 329 3.6 101260 42
2010-11-17 08:07:02 51°13.66 2°55.959 -999 327 3.6 101260 42
2010-11-17 08:07:06 51°13.661 2°55.959 -999 330 3.6 101260 43
2010-11-17 08:07:12 51°13.661 2°55.959 -999 327 3.6 101260 43
2010-11-17 08:07:16 51°13.66 2°55.959 -999 330 3.5 101260 43
2010-11-17 08:07:22 51°13.66 2°55.959 -999 331 3.5 101260 43
2010-11-17 08:07:27 51°13.66 2°55.959 -999 327 3.5 101260 43
2010-11-17 08:07:32 51°13.66 2°55.958 -999 307 3.5 101260 43
2010-11-17 08:07:37 51°13.66 2°55.959 -999 325 3.5 101260 43
2010-11-17 08:07:42 51°13.66 2°55.959 -999 328 3.5 101260 43
2010-11-17 08:07:47 51°13.659 2°55.959 -999 337 3.5 101260 43
2010-11-17 08:07:53 51°13.66 2°55.959 -999 330 3.5 101260 43
2010-11-17 08:07:57 51°13.66 2°55.959 -999 317 3.6 101270 43
2010-11-17 08:08:02 51°13.659 2°55.959 -999 323 3.6 101270 43
2010-11-17 08:08:07 51°13.66 2°55.959 -999 322 3.6 101260 43
2010-11-17 08:08:13 51°13.659 2°55.959 -999 326 3.6 101260 43
2010-11-17 08:08:16 51°13.659 2°55.959 -999 323 3.6 101270 43
2010-11-17 08:08:22 51°13.661 2°55.959 -999 327 3.6 101270 43
2010-11-17 08:08:27 51°13.66 2°55.959 -999 326 3.6 101270 43
2010-11-17 08:08:32 51°13.661 2°55.959 -999 333 3.6 101270 43
2010-11-17 08:08:36 51°13.66 2°55.959 -999 320 3.6 101270 43
2010-11-17 08:08:42 51°13.659 2°55.96 -999 333 3.6 101270 43
2010-11-17 08:08:47 51°13.66 2°55.959 -999 325 3.6 101260 43
2010-11-17 08:08:52 51°13.66 2°55.959 -999 331 3.6 101260 43
2010-11-17 08:08:56 51°13.66 2°55.959 -999 327 3.6 101260 43
2010-11-17 08:09:02 51°13.66 2°55.959 -999 330 3.6 101260 43
2010-11-17 08:09:07 51°13.66 2°55.96 -999 324 3.6 101270 43
2010-11-17 08:09:12 51°13.66 2°55.96 -999 307 3.6 101270 43
2010-11-17 08:09:16 51°13.66 2°55.959 -999 324 3.6 101260 43
2010-11-17 08:09:22 51°13.66 2°55.959 -999 326 3.6 101260 43
2010-11-17 08:09:27 51°13.66 2°55.959 -999 323 3.6 101270 43
2010-11-17 08:09:32 51°13.66 2°55.959 -999 324 3.6 101270 43
2010-11-17 08:09:36 51°13.659 2°55.959 -999 322 3.6 101260 42
2010-11-17 08:09:42 51°13.659 2°55.958 -999 307 3.6 101260 42
2010-11-17 08:09:47 51°13.66 2°55.958 -999 325 3.6 101260 43
2010-11-17 08:09:52 51°13.66 2°55.958 -999 328 3.6 101260 43
2010-11-17 08:09:56 51°13.66 2°55.958 -999 323 3.6 101270 43
2010-11-17 08:10:03 51°13.66 2°55.958 -999 329 3.6 101270 43
2010-11-17 08:10:07 51°13.66 2°55.958 -999 322 3.6 101260 43
2010-11-17 08:10:12 51°13.66 2°55.959 -999 307 3.6 101260 43
2010-11-17 08:10:16 51°13.661 2°55.958 -999 323 3.6 101260 43
2010-11-17 08:10:22 51°13.661 2°55.958 -999 327 3.6 101260 43
2010-11-17 08:10:28 51°13.661 2°55.957 -999 327 3.5 101260 43
2010-11-17 08:10:33 51°13.661 2°55.958 -999 326 3.5 101260 43
2010-11-17 08:10:37 51°13.661 2°55.958 -999 326 3.5 101260 43
2010-11-17 08:10:42 51°13.66 2°55.958 -999 331 3.5 101260 43
2010-11-17 08:10:47 51°13.66 2°55.958 -999 327 3.5 101260 43
2010-11-17 08:10:53 51°13.66 2°55.958 -999 328 3.5 101260 43
2010-11-17 08:10:57 51°13.66 2°55.958 -999 329 3.5 101260 43
2010-11-17 08:11:02 51°13.661 2°55.958 -999 334 3.5 101260 43
2010-11-17 08:11:07 51°13.661 2°55.958 -999 325 3.5 101260 43
2010-11-17 08:11:12 51°13.661 2°55.958 -999 332 3.5 101260 43
2010-11-17 08:11:17 51°13.66 2°55.958 -999 321 3.5 101260 43
2010-11-17 08:11:22 51°13.66 2°55.958 -999 332 3.5 101260 43
2010-11-17 08:11:27 51°13.66 2°55.958 -999 331 3.5 101260 43
2010-11-17 08:11:32 51°13.661 2°55.958 -999 324 3.5 101260 43
2010-11-17 08:11:37 51°13.66 2°55.958 -999 327 3.5 101260 43
2010-11-17 08:11:42 51°13.66 2°55.958 -999 328 3.5 101260 43
2010-11-17 08:11:47 51°13.66 2°55.958 -999 330 3.5 101260 43
2010-11-17 08:11:53 51°13.66 2°55.958 -999 335 3.5 101260 43
2010-11-17 08:11:57 51°13.66 2°55.958 -999 337 3.5 101260 43
2010-11-17 08:12:02 51°13.66 2°55.958 -999 326 3.5 101260 43
2010-11-17 08:12:07 51°13.66 2°55.958 -999 336 3.5 101260 43
2010-11-17 08:12:13 51°13.66 2°55.958 -999 333 3.5 101260 43
2010-11-17 08:12:17 51°13.659 2°55.958 -999 337 3.5 101250 42
2010-11-17 08:12:22 51°13.659 2°55.958 -999 332 3.5 101250 42
2010-11-17 08:12:27 51°13.66 2°55.958 -999 330 3.5 101260 43
2010-11-17 08:12:32 51°13.66 2°55.958 -999 337 3.5 101260 43
2010-11-17 08:12:37 51°13.66 2°55.958 -999 332 3.5 101260 43
2010-11-17 08:12:41 51°13.66 2°55.958 -999 336 3.5 101260 43
2010-11-17 08:12:47 51°13.66 2°55.958 -999 329 3.5 101260 43
2010-11-17 08:12:52 51°13.661 2°55.958 -999 325 3.5 101260 43
2010-11-17 08:12:57 51°13.66 2°55.958 -999 325 3.6 101260 43
2010-11-17 08:13:02 51°13.66 2°55.958 -999 307 3.6 101260 43
2010-11-17 08:13:07 51°13.66 2°55.958 -999 328 3.6 101260 43
2010-11-17 08:13:12 51°13.66 2°55.958 -999 330 3.6 101260 43
2010-11-17 08:13:17 51°13.661 2°55.958 -999 326 3.5 101260 43
2010-11-17 08:13:21 51°13.661 2°55.958 -999 307 3.5 101260 43
2010-11-17 08:13:27 51°13.661 2°55.958 -999 335 3.5 101260 43
2010-11-17 08:13:32 51°13.662 2°55.958 -999 336 3.5 101260 43
2010-11-17 08:13:37 51°13.662 2°55.958 -999 337 3.6 101260 43
2010-11-17 08:13:42 51°13.663 2°55.958 -999 331 3.6 101260 43
2010-11-17 08:13:47 51°13.663 2°55.958 -999 328 3.5 101260 43
2010-11-17 08:13:53 51°13.662 2°55.958 -999 332 3.5 101260 43
2010-11-17 08:13:57 51°13.662 2°55.958 -999 337 3.5 101260 43
2010-11-17 08:14:02 51°13.662 2°55.958 -999 334 3.5 101260 43
2010-11-17 08:14:07 51°13.662 2°55.958 -999 334 3.6 101260 43
2010-11-17 08:14:13 51°13.664 2°55.959 -999 324 3.6 101260 43
2010-11-17 08:14:17 51°13.663 2°55.959 -999 335 3.6 101260 43
2010-11-17 08:14:22 51°13.663 2°55.959 -999 339 3.6 101260 43
2010-11-17 08:14:27 51°13.663 2°55.959 -999 340 3.6 101260 43
2010-11-17 08:14:33 51°13.662 2°55.959 -999 307 3.6 101260 43
2010-11-17 08:14:37 51°13.662 2°55.959 -999 321 3.6 101260 43
2010-11-17 08:14:42 51°13.662 2°55.959 -999 325 3.6 101260 43
2010-11-17 08:14:47 51°13.663 2°55.959 -999 335 3.6 101260 43
2010-11-17 08:14:53 51°13.662 2°55.959 -999 331 3.6 101260 43
2010-11-17 08:14:57 51°13.663 2°55.959 -999 338 3.6 101250 42
2010-11-17 08:15:02 51°13.663 2°55.959 -999 326 3.6 101250 42
2010-11-17 08:15:07 51°13.663 2°55.96 -999 332 3.6 101260 43
2010-11-17 08:15:13 51°13.663 2°55.959 -999 335 3.6 101260 43
2010-11-17 08:15:17 51°13.663 2°55.959 -999 330 3.6 101260 43
2010-11-17 08:15:22 51°13.664 2°55.96 -999 331 3.6 101260 43
2010-11-17 08:15:27 51°13.664 2°55.959 -999 332 3.6 101260 43
2010-11-17 08:15:33 51°13.664 2°55.959 -999 307 3.6 101260 43
2010-11-17 08:15:37 51°13.664 2°55.959 -999 330 3.6 101250 43
2010-11-17 08:15:42 51°13.664 2°55.96 -999 330 3.6 101250 43
2010-11-17 08:15:47 51°13.664 2°55.96 -999 333 3.6 101260 43
2010-11-17 08:15:53 51°13.665 2°55.96 -999 333 3.6 101260 43
2010-11-17 08:15:57 51°13.664 2°55.96 -999 324 3.6 101260 43
2010-11-17 08:16:02 51°13.664 2°55.96 -999 307 3.6 101260 43
2010-11-17 08:16:07 51°13.663 2°55.961 -999 319 3.6 101260 43
2010-11-17 08:16:13 51°13.663 2°55.961 -999 324 3.6 101260 43
2010-11-17 08:16:17 51°13.663 2°55.961 -999 22 3.6 101260 43
2010-11-17 08:16:22 51°13.664 2°55.96 -999 307 3.6 101260 43
2010-11-17 08:16:27 51°13.664 2°55.96 -999 318 3.6 101260 43
2010-11-17 08:16:33 51°13.664 2°55.96 -999 332 3.6 101260 43
2010-11-17 08:16:37 51°13.663 2°55.961 -999 327 3.6 101260 43
2010-11-17 08:16:42 51°13.663 2°55.961 -999 326 3.6 101260 43
2010-11-17 08:16:47 51°13.664 2°55.961 -999 328 3.7 101260 43
2010-11-17 08:16:53 51°13.664 2°55.96 -999 307 3.7 101260 43
2010-11-17 08:16:57 51°13.664 2°55.961 -999 324 3.7 101260 43
2010-11-17 08:17:02 51°13.664 2°55.96 -999 329 3.7 101260 43
2010-11-17 08:17:07 51°13.664 2°55.961 -999 321 3.6 101260 43
2010-11-17 08:17:12 51°13.664 2°55.96 -999 325 3.6 101260 43
2010-11-17 08:17:17 51°13.664 2°55.96 -999 321 3.6 101260 43
2010-11-17 08:17:22 51°13.664 2°55.961 -999 328 3.6 101260 43
2010-11-17 08:17:27 51°13.664 2°55.961 -999 324 3.7 101260 43
2010-11-17 08:17:32 51°13.663 2°55.962 -999 307 3.7 101260 43
2010-11-17 08:17:37 51°13.664 2°55.961 -999 325 3.6 101260 42
2010-11-17 08:17:43 51°13.664 2°55.961 -999 307 3.6 101260 42
2010-11-17 08:17:47 51°13.664 2°55.961 -999 327 3.6 101260 43
2010-11-17 08:17:52 51°13.664 2°55.961 -999 307 3.6 101260 43
2010-11-17 08:17:57 51°13.664 2°55.961 -999 326 3.6 101260 43
2010-11-17 08:18:02 51°13.665 2°55.961 -999 307 3.6 101260 43
2010-11-17 08:18:07 51°13.664 2°55.961 -999 324 3.6 101260 43
2010-11-17 08:18:13 51°13.664 2°55.961 -999 327 3.6 101260 43
2010-11-17 08:18:17 51°13.664 2°55.96 -999 22 3.6 101260 43
2010-11-17 08:18:21 51°13.664 2°55.961 -999 307 3.6 101260 43
2010-11-17 08:18:27 51°13.664 2°55.961 -999 317 3.6 101260 43
2010-11-17 08:18:32 51°13.664 2°55.961 -999 307 3.6 101260 43
2010-11-17 08:18:37 51°13.664 2°55.961 -999 22 3.6 101260 43
2010-11-17 08:18:42 51°13.665 2°55.961 -999 307 3.6 101260 43
2010-11-17 08:18:47 51°13.665 2°55.961 -999 317 3.6 101260 43
2010-11-17 08:18:53 51°13.665 2°55.962 -999 307 3.6 101260 43
2010-11-17 08:18:57 51°13.665 2°55.961 -999 319 3.6 101260 43
2010-11-17 08:19:01 51°13.665 2°55.962 -999 307 3.6 101260 43
2010-11-17 08:19:07 51°13.665 2°55.962 -999 317 3.6 101260 43
2010-11-17 08:19:12 51°13.665 2°55.961 -999 307 3.6 101260 43
2010-11-17 08:19:17 51°13.664 2°55.961 -999 315 3.6 101260 43
2010-11-17 08:19:22 51°13.664 2°55.962 -999 324 3.6 101260 43
2010-11-17 08:19:27 51°13.664 2°55.962 -999 317 3.6 101260 43
2010-11-17 08:19:32 51°13.664 2°55.962 -999 307 3.6 101260 43
2010-11-17 08:19:37 51°13.664 2°55.962 -999 22 3.6 101260 43
2010-11-17 08:19:41 51°13.664 2°55.962 -999 307 3.6 101260 43
2010-11-17 08:19:47 51°13.665 2°55.962 -999 22 3.6 101260 43
2010-11-17 08:19:52 51°13.664 2°55.962 -999 307 3.6 101260 43
2010-11-17 08:19:57 51°13.664 2°55.961 -999 22 3.6 101260 43
2010-11-17 08:20:02 51°13.664 2°55.96 -999 307 3.6 101260 43
2010-11-17 08:20:07 51°13.664 2°55.961 -999 22 3.6 101260 43
2010-11-17 08:20:13 51°13.664 2°55.961 -999 307 3.6 101260 43
2010-11-17 08:20:17 51°13.665 2°55.961 -999 324 3.6 101260 42
2010-11-17 08:20:21 51°13.665 2°55.961 -999 307 3.6 101260 42
2010-11-17 08:20:27 51°13.664 2°55.961 -999 315 3.6 101260 43
2010-11-17 08:20:32 51°13.664 2°55.962 -999 307 3.6 101260 43
2010-11-17 08:20:37 51°13.665 2°55.962 -999 22 3.6 101260 43
2010-11-17 08:20:42 51°13.665 2°55.962 -999 307 3.6 101260 43
2010-11-17 08:20:47 51°13.664 2°55.962 -999 318 3.5 101260 43
2010-11-17 08:20:53 51°13.664 2°55.963 -999 307 3.5 101260 43
2010-11-17 08:20:57 51°13.664 2°55.962 -999 321 3.5 101260 43
2010-11-17 08:21:01 51°13.664 2°55.962 -999 307 3.5 101260 43
2010-11-17 08:21:07 51°13.665 2°55.962 -999 324 3.5 101260 43
2010-11-17 08:21:13 51°13.664 2°55.962 -999 325 3.5 101260 43
2010-11-17 08:21:17 51°13.664 2°55.962 -999 321 3.5 101250 43
2010-11-17 08:21:22 51°13.664 2°55.962 -999 307 3.5 101250 43
2010-11-17 08:21:27 51°13.664 2°55.962 -999 320 3.5 101260 43
2010-11-17 08:21:32 51°13.664 2°55.962 -999 307 3.5 101260 43
2010-11-17 08:21:37 51°13.664 2°55.962 -999 330 3.5 101250 43
2010-11-17 08:21:41 51°13.664 2°55.962 -999 307 3.5 101250 43
2010-11-17 08:21:47 51°13.664 2°55.962 -999 320 3.5 101250 43
2010-11-17 08:21:52 51°13.664 2°55.961 -999 329 3.5 101250 43
2010-11-17 08:21:57 51°13.664 2°55.961 -999 320 3.5 101250 43
2010-11-17 08:22:02 51°13.664 2°55.961 -999 307 3.5 101250 43
2010-11-17 08:22:07 51°13.664 2°55.961 -999 323 3.5 101260 43
2010-11-17 08:22:12 51°13.664 2°55.961 -999 326 3.5 101260 43
2010-11-17 08:22:17 51°13.663 2°55.962 -999 330 3.5 101250 43
2010-11-17 08:22:23 51°13.664 2°55.961 -999 307 3.5 101250 43
2010-11-17 08:22:27 51°13.663 2°55.962 -999 321 3.4 101260 42
2010-11-17 08:22:32 51°13.664 2°55.961 -999 307 3.4 101260 42
2010-11-17 08:22:37 51°13.664 2°55.961 -999 320 3.4 101260 43
2010-11-17 08:22:42 51°13.664 2°55.962 -999 307 3.4 101260 43
2010-11-17 08:22:47 51°13.664 2°55.962 -999 321 3.4 101250 43
2010-11-17 08:22:53 51°13.664 2°55.962 -999 307 3.4 101250 43
2010-11-17 08:22:57 51°13.664 2°55.962 -999 22 3.5 101250 42
2010-11-17 08:23:02 51°13.663 2°55.962 -999 326 3.5 101250 42
2010-11-17 08:23:07 51°13.662 2°55.962 -999 22 3.4 101260 43
2010-11-17 08:23:13 51°13.663 2°55.962 -999 326 3.4 101260 43
2010-11-17 08:23:17 51°13.663 2°55.962 -999 335 3.4 101250 43
2010-11-17 08:23:22 51°13.662 2°55.962 -999 326 3.4 101250 43
2010-11-17 08:23:27 51°13.662 2°55.961 -999 324 3.4 101250 43
2010-11-17 08:23:32 51°13.662 2°55.961 -999 331 3.4 101250 43
2010-11-17 08:23:37 51°13.662 2°55.961 -999 331 3.4 101250 43
2010-11-17 08:23:41 51°13.661 2°55.961 -999 327 3.4 101250 43
2010-11-17 08:23:47 51°13.662 2°55.959 -999 331 3.4 101250 43
2010-11-17 08:23:52 51°13.663 2°55.957 -999 336 3.4 101250 43
2010-11-17 08:23:57 51°13.663 2°55.954 -999 326 3.4 101260 43
2010-11-17 08:24:02 51°13.664 2°55.95 -999 343 3.4 101260 43
2010-11-17 08:24:07 51°13.665 2°55.945 -999 339 3.4 101260 42
2010-11-17 08:24:13 51°13.667 2°55.939 -999 336 3.4 101260 42
2010-11-17 08:24:18 51°13.669 2°55.933 -999 360 3.4 101250 43
2010-11-17 08:24:25 51°13.671 2°55.924 -999 352 3.4 101250 43
2010-11-17 08:24:30 51°13.673 2°55.917 -999 339 3.4 101260 43
2010-11-17 08:24:36 51°13.675 2°55.908 -999 333 3.4 101260 43
2010-11-17 08:24:41 51°13.677 2°55.9 -999 354 3.4 101260 43
2010-11-17 08:24:46 51°13.679 2°55.892 -999 354 3.4 101260 43
2010-11-17 08:24:51 51°13.681 2°55.883 -999 344 3.4 101260 42
2010-11-17 08:24:56 51°13.683 2°55.874 -999 338 3.4 101260 42
2010-11-17 08:25:01 51°13.685 2°55.864 -999 343 3.4 101250 43
2010-11-17 08:25:06 51°13.686 2°55.856 -999 340 3.4 101250 43
2010-11-17 08:25:11 51°13.687 2°55.848 -999 336 3.4 101250 43
2010-11-17 08:25:16 51°13.689 2°55.839 -999 349 3.4 101250 43
2010-11-17 08:25:21 51°13.69 2°55.83 -999 351 3.4 101250 43
2010-11-17 08:25:26 51°13.692 2°55.821 -999 353 3.4 101250 43
2010-11-17 08:25:31 51°13.693 2°55.813 -999 351 3.4 101250 43
2010-11-17 08:25:36 51°13.693 2°55.804 -999 345 3.4 101250 43
2010-11-17 08:25:41 51°13.695 2°55.795 -999 347 3.4 101250 42
2010-11-17 08:25:46 51°13.696 2°55.787 -999 353 3.4 101250 42
2010-11-17 08:25:51 51°13.697 2°55.779 -999 350 3.5 101250 43
2010-11-17 08:25:56 51°13.698 2°55.771 -999 350 3.5 101250 43
2010-11-17 08:26:01 51°13.698 2°55.763 -999 359 3.4 101250 43
2010-11-17 08:26:06 51°13.699 2°55.756 -999 357 3.4 101250 43
2010-11-17 08:26:11 51°13.699 2°55.748 -999 358 3.5 101250 43
2010-11-17 08:26:16 51°13.7 2°55.742 -999 9 3.5 101250 43
2010-11-17 08:26:21 51°13.701 2°55.736 -999 1 3.5 101250 43
2010-11-17 08:26:25 51°13.701 2°55.733 -999 350 3.5 101250 43
2010-11-17 08:26:30 51°13.701 2°55.731 -999 354 3.5 101250 43
2010-11-17 08:26:35 51°13.702 2°55.73 -999 351 3.5 101250 43
2010-11-17 08:26:40 51°13.702 2°55.728 -999 358 3.5 101250 43
2010-11-17 08:26:45 51°13.703 2°55.728 -999 8 3.5 101250 43
2010-11-17 08:26:49 51°13.704 2°55.727 -999 11 3.5 101250 43
2010-11-17 08:26:54 51°13.706 2°55.728 -999 9 3.5 101250 43
2010-11-17 08:26:59 51°13.707 2°55.727 -999 12 3.5 101250 43
2010-11-17 08:27:04 51°13.708 2°55.727 -999 15 3.5 101250 43
2010-11-17 08:27:09 51°13.708 2°55.726 -999 16 3.5 101240 43
2010-11-17 08:27:13 51°13.707 2°55.725 -999 19 3.5 101240 43
2010-11-17 08:27:18 51°13.707 2°55.723 -999 16 3.5 101250 43
2010-11-17 08:27:23 51°13.706 2°55.72 -999 31 3.5 101250 43
2010-11-17 08:27:28 51°13.704 2°55.718 -999 30 3.5 101240 43
2010-11-17 08:27:33 51°13.703 2°55.716 -999 32 3.5 101240 43
2010-11-17 08:27:38 51°13.702 2°55.713 -999 40 3.5 101250 43
2010-11-17 08:27:43 51°13.701 2°55.711 -999 19 3.5 101250 43
2010-11-17 08:27:49 51°13.7 2°55.71 -999 22 3.5 101240 43
2010-11-17 08:27:54 51°13.699 2°55.71 -999 26 3.5 101240 43
2010-11-17 08:27:59 51°13.7 2°55.709 -999 28 3.5 101250 43
2010-11-17 08:28:05 51°13.701 2°55.709 -999 29 3.5 101250 43
2010-11-17 08:28:10 51°13.703 2°55.708 -999 31 3.5 101250 43
2010-11-17 08:28:16 51°13.706 2°55.707 -999 32 3.5 101250 43
2010-11-17 08:28:21 51°13.71 2°55.706 -999 34 3.5 101250 42
2010-11-17 08:28:25 51°13.713 2°55.704 -999 30 3.5 101250 42
2010-11-17 08:28:30 51°13.719 2°55.702 -999 21 3.5 101250 43
2010-11-17 08:28:35 51°13.726 2°55.699 -999 20 3.5 101250 43
2010-11-17 08:28:40 51°13.732 2°55.695 -999 19 3.5 101250 43
2010-11-17 08:28:45 51°13.739 2°55.691 -999 20 3.5 101250 43
2010-11-17 08:28:49 51°13.744 2°55.687 -999 22 3.5 101250 43
2010-11-17 08:28:54 51°13.752 2°55.681 -999 20 3.5 101250 43
2010-11-17 08:28:59 51°13.761 2°55.675 -999 23 3.5 101250 43
2010-11-17 08:29:04 51°13.77 2°55.668 -999 19 3.5 101250 43
2010-11-17 08:29:09 51°13.779 2°55.661 -999 13 3.5 101250 43
2010-11-17 08:29:14 51°13.789 2°55.655 -999 16 3.5 101250 43
2010-11-17 08:29:19 51°13.8 2°55.647 -999 9 3.5 101250 43
2010-11-17 08:29:24 51°13.811 2°55.639 -999 7 3.5 101250 43
2010-11-17 08:29:29 51°13.821 2°55.632 -999 9 3.5 101250 43
2010-11-17 08:29:33 51°13.828 2°55.625 -999 16 3.5 101250 43
2010-11-17 08:29:38 51°13.839 2°55.617 -999 2 3.5 101250 43
2010-11-17 08:29:43 51°13.849 2°55.609 -999 16 3.5 101250 43
2010-11-17 08:29:48 51°13.86 2°55.602 -999 6 3.5 101250 43
2010-11-17 08:29:53 51°13.871 2°55.594 -999 1 3.5 101250 43
2010-11-17 08:29:57 51°13.879 2°55.588 -999 5 3.5 101240 43
2010-11-17 08:30:02 51°13.891 2°55.58 -999 5 3.5 101240 43
2010-11-17 08:30:07 51°13.904 2°55.572 -999 360 3.4 101240 43
2010-11-17 08:30:13 51°13.918 2°55.562 -999 20 3.4 101240 43
2010-11-17 08:30:17 51°13.928 2°55.554 -999 12 3.4 101240 43
2010-11-17 08:30:22 51°13.94 2°55.546 -999 20 3.4 101240 43
2010-11-17 08:30:27 51°13.952 2°55.537 -999 19 3.4 101240 43
2010-11-17 08:30:32 51°13.964 2°55.528 -999 7 3.4 101240 43
2010-11-17 08:30:37 51°13.977 2°55.519 -999 8 3.4 101240 43
2010-11-17 08:30:42 51°13.989 2°55.511 -999 14 3.4 101240 43
2010-11-17 08:30:47 51°14.001 2°55.502 -999 6 3.4 101240 43
2010-11-17 08:30:52 51°14.014 2°55.494 -999 10 3.4 101240 43
2010-11-17 08:30:57 51°14.026 2°55.486 -999 13 3.4 101240 42
2010-11-17 08:31:02 51°14.039 2°55.477 -999 17 3.4 101240 42
2010-11-17 08:31:07 51°14.051 2°55.469 -999 16 3.4 101240 43
2010-11-17 08:31:13 51°14.066 2°55.459 -999 26 3.4 101240 43
2010-11-17 08:31:17 51°14.077 2°55.453 -999 26 3.4 101240 43
2010-11-17 08:31:22 51°14.09 2°55.445 -999 22 3.4 101240 43
2010-11-17 08:31:27 51°14.103 2°55.436 -999 18 3.4 101240 43
2010-11-17 08:31:32 51°14.116 2°55.427 -999 12 3.4 101240 43
2010-11-17 08:31:37 51°14.129 2°55.418 -999 12 3.4 101240 43
2010-11-17 08:31:42 51°14.142 2°55.409 -999 7 3.4 101240 43
2010-11-17 08:31:47 51°14.155 2°55.4 -999 4 3.4 101240 43
2010-11-17 08:31:52 51°14.168 2°55.39 -999 2 3.4 101240 43
2010-11-17 08:31:57 51°14.181 2°55.379 -999 9 3.4 101240 43
2010-11-17 08:32:02 51°14.193 2°55.368 -999 14 3.4 101240 43
2010-11-17 08:32:07 51°14.206 2°55.357 -999 18 3.4 101240 43
2010-11-17 08:32:13 51°14.221 2°55.342 -999 5 3.4 101240 43
2010-11-17 08:32:17 51°14.232 2°55.333 -999 7 3.4 101230 43
2010-11-17 08:32:22 51°14.245 2°55.321 -999 10 3.4 101230 43
2010-11-17 08:32:27 51°14.258 2°55.309 -999 5 3.4 101230 43
2010-11-17 08:32:33 51°14.273 2°55.294 -999 12 3.4 101230 43
2010-11-17 08:32:37 51°14.284 2°55.285 -999 11 3.4 101230 43
2010-11-17 08:32:42 51°14.297 2°55.272 -999 8 3.4 101230 43
2010-11-17 08:32:47 51°14.31 2°55.26 -999 21 3.4 101230 43
2010-11-17 08:32:53 51°14.326 2°55.245 -999 7 3.4 101230 43
2010-11-17 08:32:57 51°14.337 2°55.234 -999 12 3.4 101230 43
2010-11-17 08:33:02 51°14.35 2°55.221 -999 13 3.4 101230 43
2010-11-17 08:33:07 51°14.364 2°55.207 -999 16 3.4 101230 43
2010-11-17 08:33:12 51°14.377 2°55.193 -999 17 3.4 101230 43
2010-11-17 08:33:17 51°14.391 2°55.18 -999 18 3.4 101230 43
2010-11-17 08:33:22 51°14.405 2°55.166 -999 18 3.4 101230 43
2010-11-17 08:33:27 51°14.419 2°55.152 -999 26 3.4 101230 43
2010-11-17 08:33:33 51°14.436 2°55.134 -999 28 3.4 101230 43
2010-11-17 08:33:37 51°14.447 2°55.122 -999 23 3.4 101230 42
2010-11-17 08:33:42 51°14.461 2°55.107 -999 23 3.4 101230 42
2010-11-17 08:33:47 51°14.475 2°55.092 -999 27 3.4 101230 43
2010-11-17 08:33:52 51°14.488 2°55.077 -999 21 3.4 101230 43
2010-11-17 08:33:57 51°14.503 2°55.062 -999 23 3.3 101230 43
2010-11-17 08:34:02 51°14.517 2°55.047 -999 21 3.3 101230 43
2010-11-17 08:34:07 51°14.532 2°55.033 -999 26 3.3 101230 43
2010-11-17 08:34:13 51°14.551 2°55.017 -999 2 3.3 101230 43
2010-11-17 08:34:17 51°14.563 2°55.006 -999 10 3.3 101230 43
2010-11-17 08:34:22 51°14.58 2°54.994 -999 360 3.3 101230 43
2010-11-17 08:34:27 51°14.596 2°54.98 -999 3 3.3 101230 43
2010-11-17 08:34:33 51°14.615 2°54.963 -999 4 3.3 101230 43
2010-11-17 08:34:37 51°14.628 2°54.951 -999 8 3.4 101220 43
2010-11-17 08:34:42 51°14.644 2°54.936 -999 10 3.4 101220 43
2010-11-17 08:34:47 51°14.659 2°54.92 -999 7 3.4 101230 43
2010-11-17 08:34:52 51°14.674 2°54.904 -999 21 3.4 101230 43
2010-11-17 08:34:57 51°14.689 2°54.889 -999 20 3.5 101230 43
2010-11-17 08:35:02 51°14.704 2°54.873 -999 22 3.5 101230 43
2010-11-17 08:35:07 51°14.719 2°54.857 -999 23 3.5 101230 43
2010-11-17 08:35:12 51°14.734 2°54.84 -999 25 3.5 101230 43
2010-11-17 08:35:17 51°14.749 2°54.824 -999 25 3.5 101230 43
2010-11-17 08:35:22 51°14.763 2°54.807 -999 26 3.5 101230 43
2010-11-17 08:35:27 51°14.778 2°54.79 -999 25 3.4 101230 43
2010-11-17 08:35:32 51°14.792 2°54.774 -999 15 3.4 101230 43
2010-11-17 08:35:37 51°14.807 2°54.757 -999 16 3.4 101230 43
2010-11-17 08:35:41 51°14.819 2°54.744 -999 15 3.4 101230 43
2010-11-17 08:35:47 51°14.836 2°54.725 -999 21 3.4 101230 43
2010-11-17 08:35:52 51°14.851 2°54.708 -999 17 3.4 101230 43
2010-11-17 08:35:57 51°14.865 2°54.692 -999 15 3.4 101230 43
2010-11-17 08:36:02 51°14.88 2°54.675 -999 4 3.4 101230 43
2010-11-17 08:36:07 51°14.895 2°54.659 -999 15 3.4 101230 43
2010-11-17 08:36:12 51°14.91 2°54.643 -999 11 3.4 101230 43
2010-11-17 08:36:17 51°14.924 2°54.627 -999 10 3.4 101230 42
2010-11-17 08:36:21 51°14.936 2°54.614 -999 6 3.4 101230 42
2010-11-17 08:36:27 51°14.954 2°54.594 -999 8 3.5 101230 43
2010-11-17 08:36:32 51°14.968 2°54.578 -999 9 3.5 101230 43
2010-11-17 08:36:37 51°14.983 2°54.561 -999 10 3.5 101230 43
2010-11-17 08:36:42 51°14.997 2°54.545 -999 8 3.5 101230 43
2010-11-17 08:36:47 51°15.012 2°54.528 -999 9 3.5 101230 43
2010-11-17 08:36:53 51°15.03 2°54.509 -999 8 3.5 101230 43
2010-11-17 08:36:57 51°15.042 2°54.495 -999 7 3.5 101230 43
2010-11-17 08:37:01 51°15.053 2°54.483 -999 13 3.5 101230 43
2010-11-17 08:37:07 51°15.071 2°54.463 -999 2 3.6 101230 43
2010-11-17 08:37:12 51°15.086 2°54.446 -999 9 3.6 101230 43
2010-11-17 08:37:17 51°15.101 2°54.43 -999 5 3.6 101230 43
2010-11-17 08:37:22 51°15.115 2°54.413 -999 11 3.6 101230 43
2010-11-17 08:37:27 51°15.13 2°54.397 -999 7 3.6 101230 43
2010-11-17 08:37:32 51°15.145 2°54.381 -999 7 3.6 101230 43
2010-11-17 08:37:38 51°15.163 2°54.361 -999 15 3.6 101230 43
2010-11-17 08:37:42 51°15.175 2°54.348 -999 11 3.6 101230 43
2010-11-17 08:37:47 51°15.189 2°54.332 -999 9 3.6 101230 43
2010-11-17 08:37:52 51°15.204 2°54.315 -999 11 3.6 101230 43
2010-11-17 08:37:57 51°15.219 2°54.299 -999 17 3.7 101230 43
2010-11-17 08:38:02 51°15.234 2°54.283 -999 11 3.7 101230 43
2010-11-17 08:38:07 51°15.249 2°54.267 -999 17 3.6 101220 43
2010-11-17 08:38:12 51°15.264 2°54.25 -999 12 3.6 101220 43
2010-11-17 08:38:17 51°15.279 2°54.235 -999 15 3.6 101230 43
2010-11-17 08:38:22 51°15.294 2°54.219 -999 19 3.6 101230 43
2010-11-17 08:38:27 51°15.309 2°54.203 -999 13 3.6 101230 43
2010-11-17 08:38:32 51°15.324 2°54.187 -999 6 3.6 101230 43
2010-11-17 08:38:37 51°15.338 2°54.17 -999 8 3.5 101230 43
2010-11-17 08:38:42 51°15.353 2°54.154 -999 6 3.5 101230 43
2010-11-17 08:38:47 51°15.368 2°54.138 -999 9 3.5 101230 43
2010-11-17 08:38:52 51°15.383 2°54.122 -999 11 3.5 101230 43
2010-11-17 08:38:57 51°15.398 2°54.106 -999 10 3.6 101230 42
2010-11-17 08:39:02 51°15.413 2°54.089 -999 17 3.6 101230 42
2010-11-17 08:39:07 51°15.428 2°54.073 -999 11 3.6 101230 43
2010-11-17 08:39:12 51°15.443 2°54.056 -999 12 3.6 101230 43
2010-11-17 08:39:17 51°15.458 2°54.041 -999 9 3.6 101230 43
2010-11-17 08:39:22 51°15.472 2°54.024 -999 12 3.6 101230 43
2010-11-17 08:39:27 51°15.487 2°54.008 -999 6 3.6 101230 43
2010-11-17 08:39:32 51°15.502 2°53.992 -999 4 3.6 101230 43
2010-11-17 08:39:37 51°15.517 2°53.975 -999 9 3.6 101230 43
2010-11-17 08:39:42 51°15.532 2°53.959 -999 19 3.6 101230 43
2010-11-17 08:39:47 51°15.546 2°53.942 -999 24 3.6 101230 43
2010-11-17 08:39:52 51°15.561 2°53.926 -999 8 3.6 101230 43
2010-11-17 08:39:57 51°15.576 2°53.91 -999 9 3.6 101230 43
2010-11-17 08:40:02 51°15.59 2°53.892 -999 15 3.6 101230 43
2010-11-17 08:40:07 51°15.604 2°53.875 -999 24 3.6 101230 43
2010-11-17 08:40:12 51°15.618 2°53.858 -999 21 3.6 101230 43
2010-11-17 08:40:17 51°15.633 2°53.84 -999 21 3.7 101230 43
2010-11-17 08:40:22 51°15.647 2°53.823 -999 30 3.7 101230 43
2010-11-17 08:40:27 51°15.66 2°53.804 -999 8 3.7 101230 43
2010-11-17 08:40:32 51°15.674 2°53.787 -999 7 3.7 101230 43
2010-11-17 08:40:37 51°15.688 2°53.768 -999 11 3.7 101230 43
2010-11-17 08:40:42 51°15.702 2°53.751 -999 20 3.7 101230 43
2010-11-17 08:40:47 51°15.716 2°53.733 -999 22 3.6 101230 43
2010-11-17 08:40:52 51°15.73 2°53.716 -999 16 3.6 101230 43
2010-11-17 08:40:57 51°15.744 2°53.698 -999 31 3.7 101230 43
2010-11-17 08:41:02 51°15.758 2°53.681 -999 33 3.7 101230 43
2010-11-17 08:41:07 51°15.772 2°53.663 -999 31 3.6 101230 43
2010-11-17 08:41:12 51°15.786 2°53.646 -999 27 3.6 101230 43
2010-11-17 08:41:17 51°15.8 2°53.628 -999 25 3.6 101230 43
2010-11-17 08:41:22 51°15.814 2°53.61 -999 24 3.6 101230 43
2010-11-17 08:41:27 51°15.827 2°53.592 -999 24 3.6 101230 43
2010-11-17 08:41:32 51°15.841 2°53.574 -999 25 3.6 101230 43
2010-11-17 08:41:37 51°15.855 2°53.556 -999 18 3.6 101230 42
2010-11-17 08:41:42 51°15.869 2°53.539 -999 27 3.6 101230 42
2010-11-17 08:41:47 51°15.884 2°53.523 -999 22 3.5 101230 43
2010-11-17 08:41:52 51°15.9 2°53.51 -999 15 3.5 101230 43
2010-11-17 08:41:57 51°15.915 2°53.495 -999 17 3.5 101230 43
2010-11-17 08:42:02 51°15.932 2°53.484 -999 14 3.5 101230 43
2010-11-17 08:42:07 51°15.948 2°53.471 -999 8 3.5 101230 43
2010-11-17 08:42:12 51°15.965 2°53.46 -999 13 3.5 101230 43
2010-11-17 08:42:17 51°15.982 2°53.45 -999 15 3.6 101220 43
2010-11-17 08:42:22 51°15.999 2°53.439 -999 16 3.6 101220 43
2010-11-17 08:42:27 51°16.017 2°53.43 -999 15 3.6 101220 43
2010-11-17 08:42:32 51°16.034 2°53.419 -999 14 3.6 101220 43
2010-11-17 08:42:37 51°16.051 2°53.409 -999 15 3.6 101210 43
2010-11-17 08:42:42 51°16.068 2°53.397 -999 17 3.6 101210 43
2010-11-17 08:42:47 51°16.085 2°53.387 -999 9 3.6 101220 43
2010-11-17 08:42:52 51°16.101 2°53.376 -999 13 3.6 101220 43
2010-11-17 08:42:57 51°16.119 2°53.366 -999 12 3.6 101220 43
2010-11-17 08:43:02 51°16.136 2°53.355 -999 14 3.6 101220 43
2010-11-17 08:43:07 51°16.152 2°53.343 -999 9 3.6 101220 43
2010-11-17 08:43:12 51°16.169 2°53.332 -999 13 3.6 101220 43
2010-11-17 08:43:17 51°16.186 2°53.32 -999 14 3.6 101220 43
2010-11-17 08:43:22 51°16.202 2°53.308 -999 16 3.6 101220 43
2010-11-17 08:43:27 51°16.218 2°53.296 -999 12 3.6 101220 43
2010-11-17 08:43:32 51°16.235 2°53.284 -999 12 3.6 101220 43
2010-11-17 08:43:37 51°16.252 2°53.273 -999 14 3.6 101220 43
2010-11-17 08:43:42 51°16.269 2°53.261 -999 13 3.6 101220 43
2010-11-17 08:43:47 51°16.285 2°53.249 -999 14 3.6 101210 43
2010-11-17 08:43:52 51°16.301 2°53.237 -999 15 3.6 101210 43
2010-11-17 08:43:57 51°16.318 2°53.225 -999 13 3.7 101210 43
2010-11-17 08:44:02 51°16.334 2°53.214 -999 13 3.7 101210 43
2010-11-17 08:44:07 51°16.351 2°53.202 -999 16 3.7 101220 43
2010-11-17 08:44:12 51°16.367 2°53.189 -999 14 3.7 101220 43
2010-11-17 08:44:17 51°16.384 2°53.177 -999 17 3.6 101220 42
2010-11-17 08:44:22 51°16.4 2°53.166 -999 19 3.6 101220 42
2010-11-17 08:44:27 51°16.417 2°53.154 -999 20 3.7 101220 43
2010-11-17 08:44:32 51°16.433 2°53.141 -999 20 3.7 101220 43
2010-11-17 08:44:37 51°16.45 2°53.13 -999 13 3.7 101210 43
2010-11-17 08:44:42 51°16.466 2°53.118 -999 9 3.7 101210 43
2010-11-17 08:44:47 51°16.483 2°53.105 -999 13 3.7 101210 43
2010-11-17 08:44:52 51°16.499 2°53.093 -999 13 3.7 101210 43
2010-11-17 08:44:57 51°16.516 2°53.081 -999 12 3.6 101220 43
2010-11-17 08:45:02 51°16.532 2°53.069 -999 12 3.6 101220 43
2010-11-17 08:45:07 51°16.548 2°53.056 -999 12 3.7 101220 43
2010-11-17 08:45:12 51°16.564 2°53.044 -999 13 3.7 101220 43
2010-11-17 08:45:17 51°16.581 2°53.032 -999 15 3.7 101210 43
2010-11-17 08:45:22 51°16.598 2°53.019 -999 13 3.7 101210 43
2010-11-17 08:45:27 51°16.614 2°53.007 -999 18 3.7 101210 43
2010-11-17 08:45:32 51°16.63 2°52.995 -999 17 3.7 101210 43
2010-11-17 08:45:37 51°16.647 2°52.982 -999 21 3.7 101210 43
2010-11-17 08:45:42 51°16.663 2°52.97 -999 16 3.7 101210 43
2010-11-17 08:45:47 51°16.679 2°52.957 -999 16 3.7 101210 43
2010-11-17 08:45:52 51°16.696 2°52.945 -999 18 3.7 101210 43
2010-11-17 08:45:57 51°16.712 2°52.932 -999 18 3.7 101210 43
2010-11-17 08:46:02 51°16.729 2°52.92 -999 20 3.7 101210 43
2010-11-17 08:46:07 51°16.745 2°52.907 -999 20 3.7 101210 43
2010-11-17 08:46:12 51°16.761 2°52.895 -999 9 3.7 101210 43
2010-11-17 08:46:17 51°16.777 2°52.882 -999 15 3.8 101210 43
2010-11-17 08:46:22 51°16.794 2°52.87 -999 17 3.8 101210 43
2010-11-17 08:46:27 51°16.81 2°52.857 -999 16 3.7 101210 43
2010-11-17 08:46:32 51°16.826 2°52.845 -999 14 3.7 101210 43
2010-11-17 08:46:37 51°16.843 2°52.832 -999 10 3.7 101220 43
2010-11-17 08:46:42 51°16.858 2°52.818 -999 13 3.7 101220 43
2010-11-17 08:46:47 51°16.875 2°52.807 -999 15 3.8 101220 43
2010-11-17 08:46:52 51°16.891 2°52.794 -999 18 3.8 101220 43
2010-11-17 08:46:57 51°16.907 2°52.78 -999 17 3.8 101220 42
2010-11-17 08:47:02 51°16.924 2°52.767 -999 15 3.8 101220 42
2010-11-17 08:47:07 51°16.94 2°52.756 -999 10 3.8 101220 43
2010-11-17 08:47:12 51°16.957 2°52.743 -999 10 3.8 101220 43
2010-11-17 08:47:17 51°16.973 2°52.729 -999 16 3.9 101210 43
2010-11-17 08:47:22 51°16.99 2°52.718 -999 19 3.9 101210 43
2010-11-17 08:47:27 51°17.007 2°52.706 -999 17 3.8 101210 44
2010-11-17 08:47:32 51°17.024 2°52.695 -999 14 3.8 101210 44
2010-11-17 08:47:37 51°17.041 2°52.684 -999 8 3.8 101210 43
2010-11-17 08:47:42 51°17.058 2°52.674 -999 11 3.8 101210 43
2010-11-17 08:47:47 51°17.075 2°52.664 -999 10 3.8 101210 43
2010-11-17 08:47:52 51°17.093 2°52.654 -999 5 3.8 101210 43
2010-11-17 08:47:57 51°17.11 2°52.644 -999 6 3.8 101210 43
2010-11-17 08:48:02 51°17.128 2°52.637 -999 6 3.8 101210 43
2010-11-17 08:48:07 51°17.146 2°52.633 -999 8 3.8 101210 43
2010-11-17 08:48:12 51°17.165 2°52.629 -999 6 3.8 101210 43